Weather History for PHBK - October, 2012

Change the Weather History Date:

Saturday, October 6, 2012

  Actual Average Record
Temperature  
Mean Temperature 78 °F -  
Max Temperature 82 °F 87 °F 90 °F (1965)
Min Temperature 73 °F 67 °F 62 °F (1974)
Cooling Degree Days 12    
Growing Degree Days 28 (Base 50)    
Moisture  
Dew Point 66 °F    
Average Humidity 67    
Maximum Humidity 74    
Minimum Humidity 58    
Precipitation  
Precipitation 0.09 in - - ()
Sea Level Pressure  
Sea Level Pressure 29.87 in    
Wind  
Wind Speed 5 mph (SSE)    
Max Wind Speed 10 mph    
Max Gust Speed -    
Visibility 10 miles    
Events Rain    
Averages and records for this station are not official NWS values.
T = Trace of Precipitation, MM = Missing Value Source: NWS Daily Summary

Daily Weather History Graph

Daily Weather History Graph

Search for Another Location

Airport or City:

Trip Planner

Search our weather history database for the weather conditions in past years. The results will help you decide how hot, cold, wet, or windy it might be!

Date:

Astronomy

Oct. 06, 2012 Rise Set
Actual Time 6:32 AM HST 6:21 PM HST
Civil Twilight 6:09 AM HST 6:43 PM HST
Nautical Twilight 5:44 AM HST 7:09 PM HST
Astronomical Twilight 5:18 AM HST 7:35 PM HST
Moon 11:17 PM HST (10/6) 12:04 PM HST (10/6)
Length of Visible Light 12h 33m
Length of Day
11h 49m
Waning Gibbous, 63% of the Moon is Illuminated
Oct 6
Waning Gibbous
Oct 7
Last Quarter
Oct 15
New
Oct 21
First Quarter
Oct 29
Full

Hourly Weather History & Observations

Time (HST) Temp. Heat Index Dew Point Humidity Pressure Visibility Wind Dir Wind Speed Gust Speed Precip Events Conditions
12:56 AM 75.0 °F - 64.9 °F 71% 29.92 in 10.0 mi East 4.6 mph - N/A   Mostly Cloudy
1:03 AM 75.2 °F - 64.4 °F 69% 29.91 in 10.0 mi East 3.5 mph - N/A   Scattered Clouds
1:56 AM 73.9 °F - 63.0 °F 68% 29.90 in 10.0 mi East 4.6 mph - N/A   Clear
2:56 AM 73.9 °F - 61.0 °F 64% 29.88 in 10.0 mi East 5.8 mph - N/A   Clear
3:56 AM 73.9 °F - 60.1 °F 62% 29.88 in 10.0 mi ENE 3.5 mph - N/A   Clear
4:56 AM 73.9 °F - 60.1 °F 62% 29.87 in 10.0 mi East 5.8 mph - N/A   Clear
5:56 AM 73.9 °F - 61.0 °F 64% 29.88 in 10.0 mi East 3.5 mph - N/A   Clear
6:56 AM 75.0 °F - 60.1 °F 60% 29.89 in 10.0 mi East 4.6 mph - N/A   Mostly Cloudy
7:56 AM 78.1 °F - 64.0 °F 62% 29.90 in 10.0 mi SE 3.5 mph - N/A   Overcast
8:56 AM 78.1 °F - 64.9 °F 64% 29.92 in 10.0 mi South 5.8 mph - 0.00 in Rain Light Rain
9:56 AM 75.9 °F - 66.0 °F 71% 29.94 in 7.0 mi SE 4.6 mph - 0.01 in Rain Light Rain
10:56 AM 77.0 °F - 66.0 °F 69% 29.92 in 6.0 mi South 4.6 mph - 0.06 in Rain Rain
11:56 AM 80.1 °F 82.3 °F 66.9 °F 64% 29.91 in 10.0 mi SSE 5.8 mph - 0.01 in   Mostly Cloudy
12:56 PM 82.0 °F 84.9 °F 68.0 °F 62% 29.88 in 10.0 mi South 10.4 mph - N/A   Mostly Cloudy
1:16 PM 80.6 °F 82.7 °F 66.2 °F 61% 29.87 in 10.0 mi South 6.9 mph - N/A   Overcast
1:56 PM 81.0 °F 83.3 °F 66.9 °F 62% 29.86 in 10.0 mi South 6.9 mph - N/A   Overcast
2:56 PM 78.1 °F - 68.0 °F 71% 29.85 in 10.0 mi SE 6.9 mph - 0.01 in   Overcast
3:11 PM 78.8 °F - 69.8 °F 74% 29.83 in 10.0 mi ESE 6.9 mph - 0.00 in Rain Light Rain
3:21 PM 78.8 °F - 69.8 °F 74% 29.83 in 10.0 mi SE 5.8 mph - 0.00 in Rain Light Rain
3:47 PM 78.8 °F - 69.8 °F 74% 29.83 in 10.0 mi SSE 4.6 mph - 0.00 in   Overcast
3:56 PM 79.0 °F - 69.1 °F 72% 29.83 in 10.0 mi SSE 5.8 mph - 0.00 in   Overcast
4:03 PM 80.6 °F 83.9 °F 69.8 °F 70% 29.83 in 10.0 mi SSW 10.4 mph - N/A   Overcast
4:09 PM 80.6 °F 83.2 °F 68.0 °F 65% 29.83 in 10.0 mi SSW 8.1 mph - N/A   Overcast
4:56 PM 80.1 °F 82.7 °F 68.0 °F 67% 29.84 in 10.0 mi SSW 4.6 mph - N/A   Mostly Cloudy
5:21 PM 78.8 °F - 68.0 °F 69% 29.83 in 10.0 mi SSW 10.4 mph - 0.00 in   Overcast
5:38 PM 80.6 °F 83.9 °F 69.8 °F 70% 29.84 in 10.0 mi SSW 9.2 mph - 0.00 in   Overcast
5:56 PM 79.0 °F - 68.0 °F 69% 29.85 in 10.0 mi SSW 8.1 mph - 0.00 in   Mostly Cloudy
6:56 PM 79.0 °F - 68.0 °F 69% 29.87 in 10.0 mi South 4.6 mph - N/A   Mostly Cloudy
7:20 PM 78.8 °F - 69.8 °F 74% 29.87 in 10.0 mi SSW 10.4 mph - 0.00 in   Overcast
7:56 PM 79.0 °F - 68.0 °F 69% 29.88 in 10.0 mi SW 6.9 mph - 0.00 in   Scattered Clouds
8:56 PM 78.1 °F - 66.0 °F 66% 29.89 in 10.0 mi Calm Calm - N/A   Scattered Clouds
9:26 PM 78.8 °F - 66.2 °F 65% 29.89 in 10.0 mi WSW 5.8 mph - N/A   Mostly Cloudy
9:39 PM 78.8 °F - 66.2 °F 65% 29.89 in 10.0 mi WSW 4.6 mph - N/A   Mostly Cloudy
9:56 PM 79.0 °F - 63.0 °F 58% 29.90 in 10.0 mi WSW 6.9 mph - N/A   Mostly Cloudy
10:56 PM 78.1 °F - 63.0 °F 60% 29.89 in 10.0 mi WSW 3.5 mph - N/A   Scattered Clouds
11:56 PM 75.0 °F - 64.9 °F 71% 29.88 in 10.0 mi Calm Calm - N/A   Partly Cloudy